Terug naar catalogus

STARLINK-3555

ActiefCommunicatieVLEO
NORAD 51863·PAYLOAD·🇺🇸 United States

Gelanceerd Mar 3, 2022 vanaf Cape Canaveral Space Force Station

Loading…

Volgende Passages (komende 24 uur)

TLE

VersSource: CelesTrak SupGP

Epoch: Sep 14, 2026, 20:28 UTC

1 51863C 22022M   26257.85326389  .00048676  00000+0  13931-2 0  2573
2 51863  53.1588 229.8375 0001324  91.8137 257.2005 15.35363463    11

Volg STARLINK-3555 in realtime met AllMySat

Download on the App Store